Adams, ND

2:51 AM CDT on September 04, 2015 (GMT -0500)
Hoople nd | | Change Station
CLOSE
Current Station
Personal Weather Station
Location: Hoople, ND
Elevation: 870 ft
Nearby Weather Stations

Elev 870 ft 48.52 °N, 97.62 °W | Updated 4 minutes ago

Clear
Clear
73.7 °F
Feels Like 72 °F
N
2.0
Wind Variable Wind from SE
Gusts 10.0 mph

Today
High -- | Low -- °F
--% Chance of Precip.
Yesterday
High -- | Low -- °F
Precip. -- in
6:53 AM 8:08 PM
Waning Gibbous, 62% visible
Pressure 29.77 in
Visibility 10.0 miles
Clouds Clear
Heat Index 72 °F
Dew Point 71 °F
Humidity 91%
Rainfall 0.00 in
Snow Depth Not available.
UV 0 out of 12
Pollen 11.70 out of 12
Air Quality Not available.
Flu Activity Not available.
METAR KD55 040755Z AUTO 17009KT 10SM CLR 24/23 A2977 RMK AO2
Pressure 29.77 in
Visibility 10.0 miles
Clouds Clear
Heat Index 72 °F
Dew Point 71 °F
Humidity 91%
Rainfall 0.00 in
Snow Depth Not available.
UV 0 out of 12
Pollen 11.70 out of 12
Air Quality Not available.
Flu Activity Not available.
METAR KD55 040755Z AUTO 17009KT 10SM CLR 24/23 A2977 RMK AO2

10-Day Weather Forecast

×

Almanac

Astronomy

Sep. 04, 2015 Rise Set
Actual Time
Civil Twilight
Nautical Twilight
Astronomical Twilight
Moon
Length of Visible Light
Length of Day
Tomorrow will be .
, % of the Moon is Illuminated

Today's Extremes

State Highs State Lows

Community

WunderPhotos

Upload Photos

1,852,132 photos uploaded!

WunderBlogs® & News

Nearby

Air Quality

  Air Quality AQ Index Pollutant
Not available.

Snow Depth

Station Depth Elevation

Earthquake Activity

City Distance Mag. Time & Date
Minimum magnitude displayed is 2.5.

Coastal Water Temperatures

Place Temperature

Stations

Nearby Weather Stations

Station Location Temp. Windchill Dew Point Humidity Wind Precip. Elev Updated Type